GFSMA_250_spd_030.txt.gz
Wind_Speed
57 54 52 50 48 46 44 42 39 38 36 39 38 41 42 42 40 39 37 32 31 29 29 31 33 36 34 33 33 33 33 32 32 34 36 37 38 39 40 41 43 46 50
59 57 55 52 50 49 48 46 42 40 36 40 41 39 43 44 44 41 39 36 33 32 30 31 33 35 37 36 33 34 33 32 32 32 33 33 34 36 38 40 41 42 42
62 60 58 57 55 52 51 49 47 43 38 39 42 40 43 44 47 45 41 38 34 34 33 32 32 33 35 38 36 34 35 33 31 31 32 32 33 34 34 35 35 37 39
66 63 62 62 60 58 55 53 51 48 44 42 43 42 42 46 48 48 44 41 38 36 34 34 34 32 33 37 39 35 35 35 34 34 33 34 34 34 34 35 35 36 37
69 67 66 67 64 61 59 56 54 52 51 49 46 45 43 45 47 50 46 44 41 39 35 34 34 33 31 36 40 38 35 34 34 34 33 33 33 35 36 37 36 36 37
75 73 71 72 68 66 64 61 57 56 57 53 49 49 47 48 49 51 49 46 43 40 36 35 33 34 31 31 39 41 38 35 34 35 35 34 34 34 35 36 36 36 36
84 82 80 77 75 72 70 66 64 62 62 59 55 52 51 51 52 52 50 48 44 41 39 38 34 33 32 31 33 40 38 35 35 35 36 37 37 38 38 39 39 39 40
90 88 85 83 81 79 77 74 72 69 66 64 59 56 54 53 55 54 53 50 46 42 41 39 36 35 33 31 32 35 39 38 37 38 38 41 42 43 43 44 45 45 45
94 93 90 88 86 84 81 78 75 73 70 67 65 61 56 55 57 56 56 54 49 45 44 41 38 34 34 32 31 35 38 41 41 41 41 42 43 45 46 47 48 49 49
97 98 96 93 90 87 86 83 80 76 73 71 68 65 60 57 59 59 58 57 52 48 47 44 40 38 34 33 32 32 35 38 39 41 41 41 42 43 44 45 46 48 51
103 101 101 98 94 92 91 88 85 81 77 74 72 69 65 62 61 60 61 60 54 50 48 48 44 40 38 37 37 38 36 37 39 42 43 44 46 48 51 52 53 53 54
106 105 103 104 102 96 93 92 89 85 82 78 74 72 69 65 65 63 61 59 56 53 50 49 47 44 42 42 40 40 40 42 42 43 45 46 48 51 54 57 58 60 61
113 111 109 105 104 102 99 97 91 87 84 81 79 75 72 70 68 65 63 60 58 56 53 50 49 47 45 45 45 43 43 44 45 47 49 50 52 54 56 58 60 61 62
123 120 115 112 109 108 104 98 96 91 87 82 82 78 76 72 70 66 63 61 59 58 55 52 51 49 49 46 47 47 48 48 49 51 53 54 56 58 60 63 63 62 61
129 125 124 120 117 113 111 106 98 91 88 85 82 79 76 74 70 65 63 62 60 59 56 55 53 51 52 51 51 52 54 55 56 57 58 58 58 61 62 64 66 65 64
130 129 124 122 123 121 118 115 106 98 90 84 83 80 76 75 69 65 64 63 61 58 58 57 55 55 56 55 56 55 56 58 61 62 62 62 63 65 65 65 66 70 70
128 126 122 118 117 119 123 121 114 106 97 89 82 79 79 77 70 65 64 64 61 61 60 60 57 58 59 60 59 59 61 63 66 67 68 71 68 68 67 66 69 72 74
119 122 121 117 111 109 114 120 120 111 106 97 89 81 78 79 72 67 65 64 61 60 62 63 62 62 63 62 62 64 67 69 70 73 74 74 73 70 67 70 71 72 75
101 106 107 107 106 104 104 111 117 116 109 105 95 86 79 72 75 74 70 69 66 63 64 63 64 66 66 64 64 67 71 75 76 78 79 78 73 73 72 70 72 75 77
90 86 90 91 91 90 93 97 107 112 113 108 101 91 83 72 69 68 68 67 68 66 66 67 67 68 69 66 67 71 76 79 82 83 83 79 78 72 73 75 77 78 76
84 82 79 79 76 75 82 88 96 101 112 105 105 95 86 78 69 66 66 66 64 65 65 66 65 66 67 68 71 77 78 82 87 86 84 80 73 75 79 76 76 77 76
74 75 73 72 70 67 72 85 92 94 104 103 100 96 87 79 71 69 66 63 62 62 61 62 64 66 68 70 75 77 81 83 86 88 76 77 74 75 72 67 69 66 64
64 64 66 66 64 62 70 85 92 96 99 98 91 90 84 79 77 73 67 64 61 60 60 61 62 65 69 74 75 79 81 81 85 80 75 78 74 73 66 62 53 50 45
55 53 56 61 61 59 63 78 86 92 93 90 86 86 83 77 78 75 69 64 60 61 58 61 62 67 73 73 77 77 80 81 82 80 76 72 68 59 52 45 38 34 31
47 48 49 53 54 54 59 71 80 85 85 85 80 82 81 77 76 74 71 65 63 59 60 62 65 71 73 76 77 76 79 78 78 81 75 61 53 45 36 29 25 25 24
40 42 42 45 51 55 61 66 74 75 80 77 77 80 80 76 73 74 71 67 63 61 62 62 68 69 72 75 72 73 73 73 73 70 60 48 36 28 23 20 21 23 31

GFSMA_250_spd_033.txt.gz
Wind_Speed
63 61 59 58 56 53 51 49 47 44 41 40 40 39 39 41 38 40 41 41 40 38 36 33 32 31 32 32 34 38 35 34 33 33 32 32 32 34 36 37 39 40 41
67 65 63 61 60 58 55 53 50 48 45 43 43 42 41 42 40 41 42 43 43 40 39 36 35 33 32 32 33 35 37 35 34 33 33 32 32 33 33 33 35 37 39
71 69 68 66 64 62 61 58 55 52 49 47 45 44 44 43 44 42 45 44 45 44 40 39 38 36 33 33 31 33 36 36 35 34 33 32 32 32 32 32 32 33 34
75 74 73 71 68 66 65 63 60 57 54 51 48 47 45 46 46 44 46 47 46 46 43 41 39 38 35 34 32 31 33 37 36 35 35 34 33 33 33 34 33 33 32
78 77 77 75 73 71 69 67 65 61 58 56 54 52 49 48 48 46 47 48 47 49 46 43 41 39 37 36 34 31 29 35 38 37 35 34 35 34 34 35 35 35 35
87 84 83 83 80 78 75 73 70 67 65 63 60 57 55 51 52 50 49 50 49 50 48 45 43 40 40 38 37 33 29 30 37 39 38 35 34 33 33 34 34 34 33
93 91 90 88 86 84 83 81 79 77 75 70 65 64 61 57 55 54 51 51 50 49 49 48 46 42 42 39 37 36 31 28 32 38 39 38 37 35 34 35 35 36 36
98 97 95 94 91 89 87 86 84 83 80 77 73 70 66 63 61 58 54 53 53 51 50 50 47 45 43 41 39 36 34 30 29 34 38 39 38 38 38 39 39 40 40
98 100 100 99 97 96 93 90 88 86 84 80 78 75 71 68 65 61 57 57 56 53 52 51 49 46 44 42 41 39 35 34 31 32 36 40 40 40 41 41 42 43 43
104 103 102 102 102 100 97 96 95 92 89 84 80 79 76 72 69 65 62 59 59 57 56 54 52 50 45 44 43 42 38 36 36 36 35 38 40 41 41 42 43 45 46
110 107 107 106 105 104 103 101 98 95 92 89 85 83 79 76 73 70 65 62 60 61 59 57 55 51 47 45 44 43 42 41 39 37 36 36 39 40 42 44 46 47 48
117 116 115 111 109 109 108 107 102 99 97 93 89 85 83 80 77 73 70 66 65 63 60 59 59 53 49 47 47 46 45 43 41 40 40 39 40 40 41 42 44 46 47
114 117 121 119 117 115 111 110 109 102 99 97 94 90 86 84 81 78 75 72 67 65 63 61 61 55 52 50 49 48 47 46 45 44 44 44 44 45 45 46 47 48 50
119 118 118 121 121 120 120 117 113 109 104 98 96 92 90 87 83 81 79 76 72 68 65 65 63 59 55 52 52 51 49 49 48 48 47 49 50 51 51 52 52 52 53
120 118 118 119 119 121 123 123 121 116 110 104 98 95 92 90 88 83 79 77 75 72 69 69 66 60 57 55 53 55 54 52 51 52 53 53 54 55 56 57 58 57 57
120 122 120 115 118 121 121 122 125 123 120 111 105 97 92 91 88 87 83 77 74 74 71 71 65 62 59 57 55 55 55 54 55 56 58 59 60 61 62 62 63 63 64
112 114 117 117 111 111 118 122 122 123 122 120 111 103 96 91 88 85 84 80 76 72 71 69 67 63 60 59 58 57 59 58 58 61 62 63 64 66 66 66 68 69 68
101 102 104 108 109 105 105 110 118 120 118 119 117 112 102 95 91 85 83 79 79 74 70 70 67 65 61 61 59 60 62 63 64 66 65 67 69 70 70 71 73 73 73
93 95 96 99 101 99 98 96 100 108 113 114 116 112 106 100 93 88 84 78 76 75 73 71 68 66 64 61 61 64 66 68 69 70 70 71 72 72 74 76 77 76 77
87 84 86 89 89 91 92 93 90 93 99 106 111 112 107 105 99 92 87 79 74 72 75 74 72 71 68 66 65 67 70 72 73 76 75 76 75 75 79 79 79 81 82
76 78 81 83 82 80 82 82 84 85 86 95 107 105 105 105 104 95 86 80 76 72 72 70 73 74 72 69 68 70 72 73 77 81 79 77 76 78 82 82 82 82 81
64 67 69 72 75 76 76 73 73 75 80 85 93 103 101 103 102 96 85 84 78 71 69 67 67 67 68 67 66 68 70 72 76 85 77 80 79 81 84 82 84 82 81
57 57 60 60 63 66 70 68 68 68 70 77 86 96 95 91 91 89 89 82 78 73 67 64 63 62 62 62 63 65 69 72 78 84 78 83 85 86 83 81 76 75 76
51 51 52 53 56 60 60 60 61 64 66 74 81 81 83 85 88 92 92 81 77 74 68 63 60 58 60 62 63 67 73 74 79 83 81 83 87 86 79 74 72 62 63
47 45 46 48 49 49 49 53 55 58 64 67 72 77 77 83 88 89 82 77 72 72 66 61 59 60 61 63 66 68 74 73 78 83 89 77 81 75 74 72 61 51 43
39 38 41 39 41 40 42 45 52 56 60 65 72 77 79 82 81 85 81 75 68 68 63 60 61 62 64 65 67 69 72 74 77 80 88 80 76 70 61 57 47 40 34

GFSMA_250_spd_036.txt.gz
Wind_Speed
67 65 64 65 64 62 58 57 55 53 51 50 47 44 42 41 38 38 39 38 38 37 38 37 34 35 34 32 31 30 29 29 30 35 34 32 30 29 29 29 29 32 33
71 70 70 69 68 67 64 61 59 57 55 54 52 49 46 44 43 39 41 41 39 40 38 39 38 36 36 35 33 31 30 29 29 31 34 33 31 30 30 29 29 30 30
75 74 74 73 73 71 69 67 65 62 60 57 56 54 50 48 46 44 43 43 40 41 40 40 40 38 37 36 35 33 31 30 29 29 33 33 32 32 31 29 28 28 28
77 78 78 78 76 75 74 72 70 68 65 62 59 58 56 52 49 47 46 45 44 42 43 42 41 41 39 36 37 35 34 32 30 29 30 33 32 32 32 31 29 29 28
79 80 82 83 81 79 78 78 76 74 71 68 64 62 60 57 54 52 49 48 46 44 45 45 43 42 41 38 37 37 36 34 31 29 28 32 33 32 32 32 31 30 30
87 87 86 86 86 85 84 81 79 79 78 75 72 68 65 62 60 58 54 52 50 48 48 48 45 44 42 40 38 39 37 34 32 31 29 28 32 33 32 31 30 29 29
91 92 92 93 91 89 88 87 86 84 82 80 78 75 72 68 67 66 61 57 54 52 50 50 48 46 44 43 41 38 38 36 33 31 31 27 29 33 33 33 31 30 30
93 93 95 96 96 96 93 91 90 88 88 85 82 79 77 74 73 70 67 65 61 57 55 53 51 48 46 44 42 40 39 37 35 33 31 30 27 30 32 33 34 34 34
98 97 97 98 100 101 99 98 95 92 92 89 87 84 80 79 78 75 71 68 65 62 58 55 54 50 49 46 44 42 40 38 36 35 31 31 31 30 32 35 36 36 36
98 100 101 102 104 104 105 104 100 99 96 94 90 88 85 83 81 79 77 73 68 65 62 58 56 53 52 48 47 44 41 38 38 36 36 32 32 32 34 36 38 40 40
101 100 100 103 105 107 108 108 108 104 100 99 96 92 88 86 85 83 82 78 71 67 63 62 61 57 53 50 49 46 44 40 38 38 37 36 34 31 31 31 32 33 34
103 103 102 101 104 108 109 110 109 110 109 103 99 97 93 89 87 85 84 83 76 72 68 65 63 60 56 53 51 49 47 44 39 40 40 39 37 36 36 35 35 35 37
106 107 107 106 104 106 109 112 113 110 109 110 107 100 96 94 90 89 86 85 79 76 71 68 67 63 59 56 54 52 50 47 44 42 43 42 41 40 40 40 40 40 41
107 108 110 111 111 110 110 112 114 116 114 108 107 107 101 97 94 92 89 87 84 80 75 73 71 68 63 59 58 56 54 50 47 45 45 46 45 44 45 45 46 47 48
107 109 110 110 112 114 113 114 112 115 119 117 111 106 101 101 98 95 93 89 87 83 80 76 73 70 67 63 61 59 58 53 51 49 48 50 50 49 49 50 51 52 52
101 102 104 107 108 107 107 108 111 113 115 119 118 114 106 100 100 100 96 92 88 85 83 81 76 72 68 67 65 63 60 58 55 52 51 52 53 52 53 54 56 57 57
97 96 96 99 103 107 105 100 101 106 111 114 117 118 114 106 100 97 99 94 90 86 84 84 78 73 70 68 66 65 63 60 58 55 54 54 56 57 58 58 58 59 60
93 94 97 100 101 103 103 102 95 95 100 107 111 116 116 115 103 97 96 94 93 89 85 84 79 76 73 69 67 65 64 62 61 59 58 57 60 60 63 65 65 64 63
94 94 94 95 96 96 97 97 92 88 89 94 104 110 112 115 111 99 95 94 92 93 88 86 80 76 75 73 69 66 64 63 63 62 62 61 63 66 67 70 70 71 70
87 86 87 86 88 88 90 86 87 81 79 86 92 99 106 109 110 108 100 90 92 90 88 85 80 78 76 74 72 69 65 65 65 65 66 65 67 70 73 74 74 75 77
75 74 73 74 75 76 78 78 79 79 71 74 83 88 95 102 105 105 100 95 96 88 82 84 84 79 75 73 72 71 70 67 68 70 69 72 74 77 78 78 78 78 81
65 65 63 64 64 61 66 72 73 71 67 64 74 81 87 93 100 104 107 97 91 84 78 78 84 81 77 71 70 70 72 72 72 74 74 79 77 78 81 79 79 81 81
58 57 54 53 54 55 57 61 62 64 65 62 65 73 80 84 93 103 98 91 85 82 83 82 76 77 76 71 66 66 67 69 72 77 76 77 79 79 78 78 80 79 81
48 46 46 46 47 49 50 52 53 55 57 60 60 64 74 81 86 94 90 85 83 86 86 83 77 72 75 70 65 64 64 65 71 77 75 74 83 79 77 78 80 80 81
41 41 41 42 42 42 42 44 44 45 50 55 57 60 68 76 82 86 79 78 80 83 79 73 71 69 69 65 61 60 62 64 71 74 77 71 81 76 76 78 80 81 76
38 32 35 34 34 36 34 37 39 40 45 49 52 57 64 71 76 77 70 74 78 78 74 72 71 65 62 62 60 59 63 64 69 71 81 69 74 74 75 81 76 73 67

GFSMA_250_spd_042.txt.gz
Wind_Speed
53 54 54 55 56 55 54 55 55 55 54 53 52 52 56 56 55 54 54 51 49 47 45 43 40 36 33 31 29 26 24 23 22 21 22 24 23 24 26 30 31 30 29
56 57 58 59 59 59 60 61 63 62 61 60 59 58 57 57 58 58 56 55 53 52 50 47 45 41 37 34 33 30 28 26 24 22 22 24 24 23 23 27 30 28 28
63 63 64 63 64 65 66 66 67 67 66 66 65 64 63 62 61 61 61 58 56 55 53 51 48 46 43 38 36 34 31 29 27 25 25 24 23 22 21 23 29 28 27
70 70 71 72 73 70 70 75 74 74 74 72 69 69 68 68 68 65 64 64 60 58 56 55 52 49 47 43 40 37 34 31 30 29 26 26 24 22 21 21 26 28 26
76 76 77 79 81 81 81 78 79 80 79 78 77 76 73 72 73 73 70 67 67 64 60 57 55 52 50 48 45 41 37 35 32 31 29 27 24 22 21 20 23 27 25
81 83 84 86 87 89 90 91 87 85 84 84 84 82 79 76 75 77 78 74 71 69 67 63 58 55 52 50 48 45 41 38 35 33 31 28 26 23 21 20 20 25 26
89 90 91 94 95 96 97 98 96 96 93 91 89 88 86 82 80 81 82 82 78 74 71 69 66 61 56 52 50 49 45 42 39 35 33 30 28 25 23 19 19 22 26
94 97 101 104 105 104 104 104 104 102 100 101 97 94 90 89 86 85 84 85 85 80 76 72 69 67 63 58 53 52 49 45 42 38 36 33 30 28 24 21 19 20 23
100 101 105 108 109 108 109 110 110 111 110 106 103 101 95 88 91 90 87 85 88 87 82 78 75 70 67 64 60 57 53 48 46 42 39 36 32 30 27 25 21 20 22
111 113 113 112 111 111 112 114 116 118 116 114 108 102 98 93 90 93 91 89 88 89 89 83 79 74 70 67 65 62 58 54 50 47 42 39 36 32 29 27 25 23 22
118 119 119 120 122 123 121 119 118 116 115 115 112 103 99 92 92 93 94 94 91 92 90 86 82 78 74 72 69 66 62 58 54 49 47 42 39 36 32 30 28 27 24
122 124 127 127 125 124 124 123 119 114 110 106 105 104 98 91 90 94 94 96 96 94 93 92 87 83 79 76 72 68 65 62 57 53 49 46 43 40 36 32 31 30 29
127 126 124 123 121 119 117 116 114 112 110 106 104 101 99 94 91 92 94 95 97 98 95 93 90 87 84 80 76 72 68 65 61 57 53 50 47 44 40 37 33 32 32
122 118 117 116 115 114 113 112 110 109 108 107 104 100 98 96 93 91 93 95 97 98 97 96 95 92 89 85 80 76 71 69 65 61 56 53 51 48 45 41 38 36 35
118 115 113 111 108 106 105 105 102 101 102 101 100 99 95 94 93 92 92 93 96 97 97 98 98 96 92 89 84 79 75 73 68 64 60 57 54 51 48 45 42 40 39
118 113 107 101 99 98 98 98 95 93 93 91 91 90 92 90 91 93 92 94 93 95 96 99 98 97 94 90 88 83 78 76 73 68 65 61 58 56 52 49 47 44 42
114 108 102 97 92 91 92 93 92 91 90 87 84 83 86 87 85 89 92 95 93 94 92 100 100 99 97 93 89 87 81 79 75 73 70 66 63 60 57 55 51 49 48
110 103 99 93 89 86 86 84 85 87 85 82 82 80 79 84 83 84 89 92 93 93 94 95 101 100 100 96 92 87 84 81 78 76 74 71 67 64 62 59 56 54 53
105 101 95 90 83 80 78 75 76 78 78 77 78 77 77 77 81 79 82 87 90 91 93 94 98 99 101 96 92 89 85 84 81 79 77 73 71 68 66 63 61 60 58
101 97 90 80 77 73 69 68 69 69 71 72 74 73 75 75 75 77 75 80 87 88 90 93 95 97 98 97 93 91 87 84 84 82 78 77 74 71 69 66 64 63 61
95 87 77 72 71 65 63 61 61 61 62 66 68 72 72 71 72 76 70 74 82 86 87 90 94 96 95 97 91 91 93 90 86 82 81 80 77 73 72 69 68 66 65
84 76 71 63 59 54 52 51 51 53 56 59 63 66 68 68 68 71 71 72 75 80 84 87 91 93 90 94 94 92 93 93 88 84 83 81 77 76 75 72 69 69 68
74 68 60 53 48 45 42 43 43 46 48 52 55 58 61 64 66 66 68 72 73 75 78 83 86 90 93 92 93 93 93 92 91 87 85 80 78 77 75 75 73 71 70
64 56 49 43 40 39 37 37 39 38 41 44 49 50 52 56 61 63 64 66 72 74 75 78 82 88 90 93 92 93 93 91 90 86 86 83 79 77 73 72 74 73 74
52 44 40 37 36 35 32 34 35 34 35 38 41 44 46 49 54 51 54 59 69 74 77 77 80 84 90 94 91 91 86 85 90 89 87 83 82 77 74 73 72 73 73
42 38 34 32 30 27 28 28 27 27 27 29 33 37 42 45 45 45 53 64 72 79 80 80 80 80 85 88 87 82 86 85 84 85 85 85 84 78 76 76 76 75 74

GFSMA_250_spd_045.txt.gz
Wind_Speed
51 53 55 56 56 57 58 58 59 59 58 58 57 55 52 49 48 49 49 51 53 54 51 48 46 46 44 42 42 39 36 31 28 24 23 24 23 25 25 26 27 27 30
56 58 60 61 63 64 65 64 64 64 64 64 64 62 60 58 56 53 51 55 54 55 56 55 51 49 48 45 46 42 40 37 32 29 24 24 25 25 25 26 27 28 27
63 64 65 66 66 67 67 69 69 67 69 69 68 68 67 66 64 62 59 56 56 59 58 59 58 53 51 50 48 46 44 41 37 33 29 25 25 26 26 26 26 27 26
71 71 72 73 74 72 70 69 72 76 75 73 74 74 74 73 72 70 67 64 60 59 63 63 61 60 56 54 51 49 47 45 42 38 34 28 26 25 26 26 26 25 22
77 79 80 80 79 77 77 77 78 77 77 83 83 81 80 80 79 77 75 72 68 64 64 66 67 63 62 58 55 52 50 48 46 42 38 33 28 26 26 26 26 25 21
81 83 83 83 84 85 85 86 86 87 85 85 87 90 90 88 86 84 82 79 76 71 67 67 70 70 66 62 59 55 52 51 49 46 43 37 33 28 27 27 26 26 23
91 92 93 93 93 92 93 95 96 96 96 97 96 92 94 94 90 87 86 85 81 78 73 69 71 74 71 68 64 58 54 53 51 49 46 41 37 33 29 27 26 26 24
93 94 97 99 101 102 104 105 105 105 105 104 103 103 98 96 94 92 92 89 87 84 80 76 73 75 75 73 69 65 59 55 54 51 49 45 41 37 33 29 28 27 26
103 103 104 104 104 105 106 108 111 113 114 113 112 110 107 105 103 101 98 95 94 89 85 82 78 77 77 77 74 69 66 61 58 55 50 47 45 41 37 33 30 27 27
108 110 111 111 113 115 116 116 115 114 114 116 122 123 116 110 108 106 103 98 98 93 88 84 81 79 78 78 78 75 70 66 63 59 54 49 47 44 42 38 34 30 27
112 113 115 118 120 121 122 123 124 125 123 120 115 114 115 114 106 102 101 97 99 92 89 87 84 80 80 80 81 80 77 70 66 63 60 55 50 48 45 42 38 34 29
115 118 123 124 124 126 127 127 129 126 125 121 117 112 109 106 108 103 97 96 97 94 91 90 83 83 83 82 83 84 81 75 70 66 63 59 56 51 48 46 42 37 33
121 126 127 128 128 128 128 127 125 119 117 114 113 112 107 104 101 104 96 92 94 92 92 92 85 87 85 86 85 84 85 80 75 70 66 62 58 55 51 48 46 42 37
129 129 127 128 128 125 123 119 118 114 111 109 105 102 101 99 96 95 96 92 91 90 97 90 87 89 89 89 88 87 84 85 80 75 70 65 61 58 55 52 49 46 42
130 129 128 124 122 120 118 114 109 106 101 99 98 95 94 94 95 91 91 92 88 91 95 94 91 90 93 93 91 89 85 85 85 79 74 69 64 61 59 56 52 50 46
131 127 124 122 117 114 110 105 100 96 95 91 94 93 92 90 93 91 89 89 89 87 92 95 96 95 93 94 92 90 89 87 86 83 78 73 69 65 62 59 56 53 50
128 125 121 117 110 105 101 96 93 89 89 90 89 90 90 89 89 91 87 86 87 86 85 96 98 98 94 96 96 94 92 89 88 86 83 77 73 69 65 61 59 57 53
126 122 115 109 104 98 95 91 87 87 85 86 85 85 84 85 84 88 89 84 84 84 86 93 97 101 98 98 99 97 94 91 89 87 85 82 77 72 68 64 62 60 57
121 115 109 104 100 94 89 88 84 81 79 78 77 74 75 80 77 80 85 83 83 82 84 90 96 101 100 97 99 98 96 93 91 89 86 85 82 76 72 69 65 63 61
114 109 104 99 95 91 86 81 76 74 73 72 70 69 68 71 69 73 79 81 80 82 84 86 95 98 100 96 98 99 98 96 95 91 90 88 85 80 75 73 69 66 65
106 103 98 95 91 86 79 72 71 69 67 67 66 63 62 62 61 65 72 75 76 79 84 85 91 96 99 98 98 101 100 98 98 92 91 88 86 83 81 76 73 70 68
101 96 92 87 81 75 71 67 66 62 60 60 60 59 57 55 56 60 66 72 72 74 82 86 90 93 97 99 100 102 100 99 98 93 92 91 87 85 83 79 77 74 71
95 88 81 77 70 66 62 58 54 53 52 53 52 53 51 50 51 55 62 67 67 70 78 84 87 90 95 98 101 100 101 98 99 98 95 92 87 85 84 82 79 77 75
83 76 70 64 58 55 52 50 48 46 43 43 44 45 44 45 46 50 56 61 63 68 75 79 83 88 92 95 99 101 102 99 99 96 93 89 89 87 86 82 81 79 77
71 65 59 54 51 48 46 44 42 39 36 35 36 37 36 40 42 45 49 55 59 65 71 75 80 85 88 91 96 100 101 96 98 93 89 90 91 91 88 82 81 80 78
60 56 53 49 45 43 39 36 33 30 29 27 27 31 32 34 38 43 47 52 58 65 68 71 77 81 84 88 91 96 99 98 92 90 86 90 95 94 90 86 84 81 80

GFSMA_250_spd_048.txt.gz
Wind_Speed
41 44 46 47 51 53 55 55 56 55 56 57 56 56 55 54 54 52 50 49 46 46 45 46 47 48 49 50 47 43 41 40 39 39 33 31 26 24 24 24 25 26 28
46 48 50 53 56 57 58 60 61 61 63 64 63 61 59 58 57 57 55 55 55 51 51 49 49 49 49 51 52 50 46 44 42 41 39 34 31 26 25 25 25 26 28
53 55 57 61 62 63 62 61 65 67 66 66 65 66 65 64 62 62 61 61 61 59 56 56 55 53 52 52 52 53 53 48 46 44 42 39 35 30 27 26 26 25 27
58 61 64 66 66 67 67 69 71 71 72 73 73 71 70 71 71 69 68 68 68 67 64 62 59 59 57 55 54 55 56 55 50 47 45 43 40 37 30 28 27 26 27
65 68 69 70 71 74 77 79 81 81 80 79 77 78 79 77 75 77 76 75 75 74 73 70 68 63 62 60 57 57 58 57 56 51 48 46 44 41 36 30 29 28 26
71 73 74 74 79 83 86 88 89 89 88 86 85 83 83 82 83 81 83 82 81 81 78 77 75 71 67 64 62 60 60 61 59 56 51 49 47 44 41 36 32 29 27
79 82 82 87 93 95 98 98 96 97 96 93 91 89 89 88 87 87 89 89 86 85 83 79 78 75 72 69 66 64 63 63 64 60 55 51 50 47 44 41 36 32 29
85 87 90 95 99 103 105 105 104 103 101 104 103 100 97 97 97 94 93 93 90 87 88 86 82 82 78 74 71 67 66 67 66 66 59 54 53 51 47 43 40 36 31
92 97 100 104 107 108 107 106 105 104 105 106 111 115 114 107 102 101 98 96 99 95 91 94 90 88 85 81 76 72 70 70 70 68 66 59 54 53 50 46 43 39 35
100 104 108 112 116 116 113 109 110 111 114 115 118 119 120 114 111 105 104 101 100 101 99 94 94 92 89 87 83 79 76 73 74 71 70 65 58 55 53 49 46 42 39
108 112 116 117 118 114 113 116 120 123 124 124 123 119 118 120 115 113 107 104 99 95 95 94 91 89 88 87 87 85 80 77 76 75 73 70 65 59 55 52 49 45 41
113 116 118 117 116 118 121 123 126 127 128 128 126 123 118 114 114 112 107 104 102 95 92 92 91 88 86 86 85 86 84 79 80 78 76 74 69 64 59 55 52 48 43
116 115 115 118 122 126 128 131 129 126 127 128 123 119 116 114 110 109 108 102 101 96 92 89 90 88 86 86 87 86 86 82 82 80 78 77 73 67 64 60 55 51 46
115 118 121 125 128 130 131 129 128 126 122 120 118 116 113 109 108 102 100 100 95 95 91 87 90 87 89 88 90 87 86 86 84 83 79 79 77 72 66 63 59 55 51
123 125 129 131 131 128 129 130 124 120 120 116 111 106 106 100 97 96 92 91 89 88 85 85 87 90 91 91 90 87 87 87 84 85 81 82 81 76 71 66 61 58 55
129 132 132 128 130 131 127 123 121 116 112 109 102 98 95 94 90 89 88 85 84 83 82 82 82 89 94 94 92 87 89 89 86 85 83 82 84 80 76 70 65 61 58
133 129 130 133 129 125 123 120 114 109 104 99 95 92 90 89 88 83 85 84 82 82 80 81 83 89 94 95 96 93 92 91 88 88 86 85 86 84 80 75 69 65 61
128 133 133 128 125 122 117 112 105 101 96 94 90 87 86 84 82 80 81 83 82 81 81 83 84 87 92 95 96 99 100 98 93 90 90 87 85 87 83 79 73 69 66
134 128 124 123 119 115 110 105 100 95 90 88 84 82 78 77 75 75 75 76 80 80 82 83 87 88 90 95 104 106 94 96 97 95 93 89 87 87 88 82 77 72 69
126 124 121 114 109 104 101 96 92 87 83 79 76 72 71 69 67 69 67 66 72 77 76 83 87 88 92 100 109 96 92 91 97 99 97 93 91 88 88 87 80 75 72
123 117 111 105 99 93 91 87 83 77 73 71 68 65 63 61 61 63 60 62 66 69 70 78 85 89 92 101 105 101 98 98 97 98 97 95 93 90 88 88 85 78 75
114 107 102 95 90 85 80 74 69 64 62 59 56 54 53 53 53 55 51 60 60 61 64 74 82 91 93 97 102 99 103 106 97 99 98 97 95 92 91 89 87 82 76
106 98 92 87 81 74 68 63 59 54 51 49 47 46 46 45 45 43 48 50 48 58 59 68 77 87 91 92 96 96 104 101 99 103 101 99 96 93 91 89 87 86 80
98 89 83 75 68 62 57 53 49 45 43 42 41 41 38 38 38 39 40 46 49 52 58 66 76 85 88 88 90 95 100 102 102 102 100 97 96 94 92 90 88 87 85
88 81 70 64 59 53 49 45 41 38 36 35 35 35 35 36 34 35 39 43 46 50 56 65 73 81 84 85 87 89 96 100 100 98 99 99 97 96 93 92 89 88 87
76 68 61 55 52 47 42 38 34 33 31 30 30 29 28 31 30 32 38 40 45 49 55 63 73 81 82 82 83 84 91 96 98 96 98 101 100 99 95 93 92 90 88